Simultaneous Nadir Overpasses (SNOs) Predictions

Prediction of SNOs between AQUA and METOP-B Satellite Orbit:

Table of predicted SNOs for the next 14.0 days since TLE Epoch: 10/15/2023
Index Date (AQUA) Time (AQUA) Lat,Lon (AQUA) SZA (AQUA ) Date (METOP-B) Time (METOP-B) Lat,Lon (METOP-B) SZA (METOP-B ) Distance(km) Time Diff (sec)
1 10/16/2023 13:26:06 -74.89, 154.81 96.29 10/16/2023 13:25:14 -74.88, 154.84 96.29 0.96 52
2 10/16/2023 14:15:32 74.94, -37.68 83.78 10/16/2023 14:15:53 74.92, -37.72 83.76 2.65 21
3 10/19/2023 06:28:26 74.89, 79.24 84.71 10/19/2023 06:27:28 74.90, 79.32 84.72 2.47 58
4 10/19/2023 07:17:50 -74.95,-113.26 95.22 10/19/2023 07:18:09 -74.94,-113.25 95.23 1.71 19
5 10/21/2023 23:30:43 -74.90, 3.68 94.31 10/21/2023 23:29:45 -74.91, 3.76 94.31 2.41 58
6 10/22/2
